DW8426 Weather Reports


Display with metric or nautical units.
time (UTC)temp
F
wind
direction
speed
MPH
gust
MPH
rain 1hr
in
rain 24hr
in
rain mn
in
humidity
%
barometer
mb
20260504174604 70 116 0.0 3.0 0.00 0.00 0.00 58 1004.6
20260504173103 71 105 1.0 8.0 0.00 0.00 0.00 55 1004.9
20260504171601 73 171 1.0 8.0 0.00 0.00 0.00 54 1005.4
20260504160104 65 0 0.0 6.0 0.00 0.00 0.00 68 1005.8
20260504120130 59 0 0.0 3.0 0.00 0.00 0.00 74 1008.1
20260504081610 57 0 0.0 0.0 0.00 0.00 0.00 76 1008.1
20260504044606 66 0 0.0 3.0 0.00 0.00 0.00 58 1008.0
20260504043112 66 0 0.0 3.0 0.00 0.00 0.00 57 1008.1
20260504041558 67 181 0.0 2.0 0.00 0.00 0.00 57 1008.5
20260504040058 68 0 0.0 2.0 0.00 0.00 0.00 55 1009.0
20260504034600 68 0 0.0 3.0 0.00 0.00 0.00 55 1009.0
20260504033128 68 0 0.0 2.0 0.00 0.00 0.00 55 1008.9
20260504031600 68 0 0.0 2.0 0.00 0.00 0.00 55 1008.9
20260504030115 68 0 0.0 4.0 0.00 0.00 0.00 55 1009.1
20260504024555 69 0 0.0 1.0 0.00 0.00 0.00 55 1008.9
20260504023058 69 0 0.0 2.0 0.00 0.00 0.00 54 1008.9
20260504021557 70 0 0.0 2.0 0.00 0.00 0.00 53 1008.9
20260504020105 70 0 0.0 1.0 0.00 0.00 0.00 52 1008.8
20260504014604 72 0 0.0 0.0 0.00 0.00 0.00 50 1008.9
20260504013100 73 0 0.0 0.0 0.00 0.00 0.00 49 1008.8
20260504011559 74 0 0.0 1.0 0.00 0.00 0.00 46 1008.7
20260504004600 75 0 0.0 1.0 0.00 0.00 0.00 43 1008.3
20260504003114 76 0 0.0 2.0 0.00 0.00 0.00 42 1008.3
20260504001600 76 0 0.0 1.0 0.00 0.00 0.00 41 1008.3
20260504000105 77 0 0.0 2.0 0.00 0.00 0.00 41 1008.3
20260503234558 77 0 0.0 2.0 0.00 0.00 0.00 40 1008.3
20260503233102 78 220 0.0 4.0 0.00 0.00 0.00 38 1008.3
20260503231556 78 181 1.0 8.0 0.00 0.00 0.00 37 1008.3
20260503230110 80 200 0.0 7.0 0.00 0.00 0.00 35 1008.6
20260503224556 80 0 1.0 10.0 0.00 0.00 0.00 34 1008.7
20260503223110 80 0 1.0 5.0 0.00 0.00 0.00 36 1008.7
20260503221555 80 104 1.0 7.0 0.00 0.00 0.00 35 1008.9
20260503220055 80 232 2.0 9.0 0.00 0.00 0.00 33 1009.1
20260503214559 80 209 1.0 5.0 0.00 0.00 0.00 33 1009.2
20260503213057 79 0 1.0 9.0 0.00 0.00 0.00 32 1009.4
20260503211557 79 248 2.0 12.0 0.00 0.00 0.00 34 1009.4
20260503210058 79 247 1.0 8.0 0.00 0.00 0.00 35 1009.6
20260503204557 78 238 2.0 15.0 0.00 0.00 0.00 33 1009.9
20260503203058 77 222 2.0 10.0 0.00 0.00 0.00 35 1010.1
20260503201556 76 0 2.0 15.0 0.00 0.00 0.00 34 1010.1
20260503194621 76 147 4.0 14.0 0.00 0.00 0.00 34 1010.8
20260503193056 75 136 2.0 11.0 0.00 0.00 0.00 37 1011.2
20260503191613 74 209 4.0 12.0 0.00 0.00 0.00 35 1011.5
20260503190100 73 201 3.0 10.0 0.00 0.00 0.00 37 1011.8
20260503184600 73 121 1.0 8.0 0.00 0.00 0.00 37 1012.3
20260503183101 72 139 2.0 11.0 0.00 0.00 0.00 40 1012.8
20260503181608 71 156 1.0 7.0 0.00 0.00 0.00 39 1012.9
20260503180056 70 155 3.0 16.0 0.00 0.00 0.00 36 1013.1